#timestamp,LO_Frequency,Hit,StdDev 
1654696815.7,286046999.3,N
1654696835.5,286046998.6,N
1654696855.4,286047000.8,N
1654696875.2,286046999.1,N
1654696895.0,286047000.7,N
1654696895.9,286047000.7,N
1654696915.8,286047000.9,N
1654696935.6,286047000.1,N
1654696955.5,286047002.6,N
1654696975.3,286047003.5,N
1654696995.1,286047003.1,N
1654697015.9,286047005.7,Y
1654697035.7,286047007.3,P
1654697055.5,286047007.1,N
1654697075.4,286047007.6,N
1654697095.2,286047007.5,N
1654697115.1,286047005.0,N
1654697116.0,286047005.0,N
1654697135.8,286047005.2,N
1654697155.6,286047004.7,N
1654697175.5,286047006.9,N
1654697195.3,286047008.8,Y
1654697215.2,286047003.5,P
1654697235.9,286047003.1,N
1654697255.7,286047005.2,P
1654697275.6,286047005.5,Y
1654697295.4,286047002.7,P
1654697315.3,286047000.9,N
1654697335.1,286047000.0,N
1654697355.8,286047000.0,N
1654697375.7,286047002.2,N
1654697395.5,286047004.0,N
1654697415.3,286047003.4,N
1654697435.2,286047007.2,Y
1654697455.0,286047003.5,P
1654697455.9,286047003.5,P
1654697475.8,286047004.3,P
1654697495.6,286047003.5,Y
1654697515.5,286046998.1,P
1654697535.3,286047000.0,N
1654697555.1,286047002.4,N
1654697575.9,286047001.8,N
1654697595.7,286047003.9,N
1654697615.5,286047002.0,N
1654697635.4,286047004.1,N
1654697655.2,286047001.3,N
1654697675.1,286047001.8,N
1654697676.0,286047001.8,N
1654697695.8,286047001.6,N
1654697715.6,286047001.8,N
1654697735.5,286047003.4,N
1654697755.3,286047003.0,N
1654697775.1,286047003.2,N
1654697795.9,286047004.5,Y
1654697815.7,286047001.5,P
1654697835.6,286047002.1,P
1654697855.4,286047002.2,P
1654697875.2,286047001.1,Y
1654697895.1,286046999.6,P
1654697896.0,286046999.6,N
1654697915.8,286046999.5,N
1654697935.6,286046999.6,N
1654697955.5,286046996.9,Y
1654697975.3,286046999.5,P
1654697995.2,286046998.9,P
1654698015.9,286046998.9,N
1654698035.7,286046998.5,Y
1654698055.6,286046998.8,P
1654698075.4,286046998.9,P
1654698095.3,286046998.1,P
1654698115.1,286047001.1,N
1654698116.0,286047001.1,N
1654698135.8,286046998.1,N
1654698155.7,286047000.8,N
1654698175.5,286047001.0,N
1654698195.4,286047001.2,N
1654698215.2,286047001.0,N
1654698235.0,286047000.9,N
1654698235.9,286047000.9,N
1654698255.8,286047000.7,N
1654698275.6,286046998.2,N
1654698295.4,286046998.1,N
1654698315.3,286046998.7,N
1654698335.1,286046998.9,N
1654698355.9,286046999.2,N
1654698375.7,286046999.1,N
1654698395.5,286046999.2,N
1654698415.4,286046999.6,N
1654698435.2,286046999.2,N
1654698455.0,286046999.6,N
1654698455.9,286046999.6,N
1654698475.8,286046996.5,Y
1654698495.6,286046997.0,P
1654698515.5,286046999.2,N
1654698535.3,286046999.5,N
1654698555.1,286046997.1,N
1654698575.9,286046997.3,N
1654698595.7,286046996.6,N
1654698615.5,286046997.0,N
1654698635.4,286046999.4,N
1654698655.2,286046998.4,N
1654698675.1,286047000.8,N
1654698676.0,286047000.8,N
1654698695.8,286046998.2,N
1654698715.6,286046998.4,N
1654698735.5,286047000.7,N
1654698755.3,286047000.5,N
1654698775.2,286046998.7,N
1654698795.9,286047000.3,N
1654698815.7,286046998.6,N
1654698835.6,286047000.5,N
1654698855.4,286047000.9,N
1654698875.2,286046998.2,N
1654698895.1,286046998.6,N
1654698896.0,286046998.6,N
1654698915.8,286046998.8,N
1654698935.7,286046997.1,N
1654698955.5,286046999.5,N
1654698975.3,286046997.8,N
1654698995.2,286046996.9,N
1654699015.0,286046997.6,N
1654699015.9,286046997.6,N
1654699035.8,286046995.1,Y
1654699055.6,286046999.3,P
1654699075.4,286047001.0,P
1654699095.3,286047001.1,N
1654699115.1,286047000.7,N
1654699135.8,286047000.7,N
1654699155.7,286047000.5,N
1654699175.5,286047000.9,N
1654699195.4,286047001.1,N
1654699215.2,286047001.0,N
1654699235.0,286047000.7,N
1654699235.9,286047000.7,N
1654699255.8,286047000.7,N
1654699275.6,286047000.7,N
1654699295.5,286047001.0,N
1654699315.3,286047001.2,N
1654699335.1,286047000.4,N
1654699355.9,286047001.1,N
1654699375.7,286046998.3,N
1654699395.5,286047000.3,N
1654699415.4,286047000.9,N
1654699435.2,286046998.1,N
1654699455.1,286047000.6,N
1654699456.0,286047000.6,N
1654699475.8,286047000.6,N
1654699495.6,286047000.1,N
1654699515.5,286047000.5,N
1654699535.3,286047000.0,N
1654699555.2,286047000.7,N
1654699575.9,286047000.3,N
1654699595.7,286047000.7,N
1654699615.6,286047000.7,N
1654699635.4,286046998.4,N
1654699655.3,286046998.3,N
1654699675.1,286046999.4,N
1654699676.0,286046999.4,N
1654699695.8,286046998.3,N
1654699715.7,286046999.3,N
1654699735.5,286046999.1,N
1654699755.3,286046998.7,N
1654699775.2,286047001.2,N
1654699795.0,286047002.8,N
1654699795.9,286047002.8,N
1654699815.8,286047002.8,N
1654699835.6,286047000.2,N
1654699855.4,286046999.8,N
1654699875.3,286047002.8,N
1654699895.1,286047002.8,N
1654699915.9,286047000.3,N
1654699935.7,286046999.9,N
1654699955.5,286047000.0,N
1654699975.4,286047001.1,N
1654699995.2,286046999.9,N
1654700015.0,286046998.6,N
1654700015.9,286046998.6,N
1654700035.8,286047001.2,N
1654700055.6,286046998.3,N
1654700075.5,286047000.3,N
1654700095.3,286047000.9,N
1654700115.1,286047001.0,N
1654700135.9,286047000.7,N
1654700155.7,286046996.7,N
1654700175.5,286046999.6,N
1654700195.4,286046996.9,N
1654700215.2,286046999.6,N
1654700235.0,286046999.2,N
1654700236.0,286046999.2,N
1654700255.8,286046997.0,N
1654700275.6,286046996.8,N
1654700295.5,286046997.1,N
1654700315.3,286046997.2,N
1654700335.1,286046996.7,N
1654700355.9,286046999.0,N
1654700375.7,286047011.9,Y
1654700395.6,286046998.9,P
